sat.trackr.live / text

‹ back to catalog

STARLINK-30269

NORAD 57528 · 2023-115H

PAYLOAD ACTIVE UNKNOWN

§ Identity

Operator
Country
US
Launch date
2023-08-08
Launch site
AFWTR
Launch vehicle
Mass (kg)
RCS (m²)

Purposes: comms

External: N2YO · Heavens-Above · Gunter

§ Orbital elements

Epoch: 2026-05-25T02:37:01.111296Z

Period
94.27 min
Inclination
43.0027°
Eccentricity
0.0000362
Mean motion
15.27570281 rev/d
Perigee alt
482.8 km
Apogee alt
483.3 km
Semi-major
6,861.2 km
B*
2.9728e-6
RAAN
290.4665°
Arg perigee
304.8099°
Mean anomaly
55.2718°
Rev number
15,403

§ Raw data

STARLINK-302691 57528U 23115H   26145.10904064 -.00000180  00000+0  29728-5 0  99932 57528  43.0027 290.4665 0000362 304.8099  55.2718 15.27570281154030

JSON: /api/v1/satellites/57528 · /tle

For live sub-satellite position, see the globe view (requires WebGL).

§ Visibility from observer

Set your observer location to see the next 7 days of passes ≥ 10°. The values pass through the URL so the page stays shareable.

No JS? Fill the form by hand. The geolocation button needs JavaScript.